Vertical_Velocity
-2 -1 -1 -1 -1 -1 1 -0 -1 -1 -0 -1 -1 -2 -2 -1 -0 0 1 -1 -2 -3 -2 -1 -1 -1 0 1 1 0 -0 -1 -1 -0 -0 0 0 0 0 0 -0 -0 -0 -0 -0 -1 -1 -1 -1 -1 -1 -0 -0 -0 -0 -0 -0 0 0 0 -0 -1 -1 -1 -1 -1 -1 -0 -0 -0 0 -0 -0 -1 -1 -1 -0 -0 -0 -0 -0 -0 -0 -0 -0 -0 -1 -1 -1 -1 -1 -1 -1 -1 -1 -2 -1 -1 -1 -1 -1 -1 -1
-2 -1 -1 -1 -1 -1 -0 -0 -1 -1 -1 -1 -1 -2 -2 -2 -0 1 1 -2 -3 -2 -1 -1 -1 -1 0 1 1 0 -0 -0 -0 -0 -0 0 0 0 0 0 -0 -0 -0 -0 -0 -0 -1 -1 -1 -0 0 0 -0 -0 -0 0 0 0 1 1 0 -1 -1 -1 -1 -1 -0 0 0 0 0 -0 -0 -1 -1 -1 -1 -0 -0 -0 -0 0 0 -0 -0 -0 -1 -1 -0 -0 -0 -1 -1 -1 -2 -1 -1 -1 -1 -1 -1 -2 -2
-2 -2 -1 -1 -1 -1 -1 -1 -1 -1 -0 -1 -1 -1 -1 -0 1 1 -0 -3 -3 -2 -1 -0 -1 -1 0 1 1 1 -0 -0 -0 0 0 0 0 0 0 -0 -0 -1 -1 -0 -0 -0 -1 -1 -0 0 0 -0 -0 -0 -0 -1 -0 0 0 -0 -1 -1 -1 -1 -0 0 1 1 0 -0 -1 -1 -1 -1 -1 -1 -0 -0 -0 -0 -0 -0 -0 -1 -1 -1 -0 -0 -0 -0 -1 -1 -1 -1 -1 -1 -1 -1 -1 -1 -2 -2 -2
-2 -2 -2 -1 -1 -1 -1 -1 -1 -1 -0 -1 -2 -2 -1 1 0 -1 -2 -2 -2 -1 -1 -0 -0 -0 0 1 1 1 0 -0 0 0 1 1 0 0 0 -0 -1 -1 -1 -0 -0 -1 -1 -1 -0 -0 -0 -0 -1 -1 -1 -2 -2 -2 -1 -2 -2 -1 1 2 2 1 1 -0 -0 -0 -1 -1 -1 -1 -1 -0 -0 -0 0 -0 -0 -1 -1 -1 -1 -1 -0 -0 -1 -1 -1 -1 -1 -1 -1 -1 -1 -1 -1 -1 -1 -1 -1
-2 -2 -2 -1 -1 -1 -1 -1 -1 -1 -0 -1 -3 -4 -4 -3 -3 -3 -3 -2 -1 -1 -1 -0 -0 -0 0 1 1 1 0 0 0 1 1 1 0 0 -0 -0 -1 -1 -1 -1 -1 -1 -1 -1 -1 -0 -1 -0 -1 -1 0 -0 -2 -3 -0 0 1 2 4 3 1 -0 0 -1 -1 -1 -1 -1 -1 -1 -1 -0 0 0 0 0 -0 -1 -1 -1 -1 -0 -0 -0 -1 -1 -1 -1 -1 -1 -1 -1 -1 -1 -1 -1 -1 -1 -1
-2 -2 -2 -1 -2 -2 -3 -3 -2 -1 -0 -3 -1 1 1 -3 -4 -4 -3 -1 -1 -1 -1 -0 0 0 0 1 1 1 1 1 1 1 1 1 0 -0 -0 -1 -1 -1 -1 -1 -1 -1 -1 -1 -1 -1 -1 -0 -1 -1 1 3 0 -3 -2 -0 3 4 2 1 0 -0 0 -0 -1 -1 -1 -1 -1 -1 -0 0 0 1 0 0 -0 -1 -1 -1 -1 -1 -0 -0 -1 -1 -1 -1 -1 -1 -1 -1 -1 -1 -1 -1 -1 -1 -1
-2 -2 -2 -2 -2 -3 -4 -4 -3 -1 -1 -3 2 10 16 7 0 -3 -3 -2 -1 -1 -1 -0 0 1 1 1 1 1 1 1 1 1 1 1 0 -0 -1 -1 -2 -2 -1 -1 -1 -1 -1 -1 -1 -1 -1 -0 -1 -1 -0 2 1 -1 -3 -2 -0 1 -0 -0 0 -0 -1 -1 -1 -1 -1 -1 -1 -1 -0 0 1 1 1 0 -0 -1 -1 -0 -0 -0 -1 -0 -1 -1 -1 -1 -1 -1 -1 -1 -1 -1 -1 -1 -1 -1 -1
-2 -3 -4 -3 -3 -3 -3 -4 -3 -2 -1 -2 1 8 17 12 5 0 -2 -2 -2 -2 -1 0 1 1 1 1 1 1 1 1 1 1 1 1 0 -0 -1 -2 -2 -2 -1 -1 -1 -1 -1 -1 -1 -1 -1 -1 -1 -1 -1 -0 0 0 -1 -2 -2 -2 -1 -0 0 -0 -1 -1 -1 -1 -1 -1 -1 -1 -0 0 1 1 1 0 -0 -0 -0 -0 -0 -0 -0 -0 -1 -1 -1 -1 -1 -1 -1 -1 -1 -1 -1 -1 -1 -1 -1
-3 -3 -3 -3 -2 -1 -1 -3 -3 -2 -1 -1 -1 2 10 9 7 4 -1 -2 -2 -1 -1 0 1 1 1 0 1 1 1 2 2 2 1 1 0 -1 -2 -2 -2 -1 -0 -0 -0 -1 -1 -1 -1 -1 -1 -0 -1 -2 -1 -0 0 0 0 -0 -1 -1 -1 -1 -0 -0 -0 -0 -1 -1 -0 -1 -1 -1 -0 0 1 1 1 -0 -0 -0 -0 -0 -0 -0 -0 -0 -1 -1 -1 -1 -1 -1 -1 -1 -1 -1 -1 -1 -1 -1 -1
-1 1 4 -0 -2 -2 -2 -3 -3 -2 -1 -0 -1 0 4 5 4 2 -2 -3 -3 -1 -0 0 1 1 1 0 1 1 1 2 2 2 1 1 -0 -1 -2 -2 -1 -1 -0 -0 -0 -1 -1 -1 -0 -0 -0 0 -1 -2 -1 -1 0 0 1 0 -0 -0 -1 -1 -1 0 -0 -0 -0 -0 -0 -1 -1 -1 0 1 1 0 0 -0 -1 -0 -0 -0 -0 -0 -0 -0 -0 -1 -1 -1 -1 -1 -1 -1 -1 -1 -1 -1 -1 -1 -1
2 5 6 2 -2 -3 -3 -2 -3 -2 -1 -0 -0 -0 0 0 -0 -1 -4 -3 -2 -1 -0 0 1 1 1 1 1 1 1 2 2 2 1 1 -0 -1 -2 -1 -1 -0 0 0 -0 -1 -1 -0 -0 -0 -0 0 -0 -1 -1 -0 0 0 1 1 0 -0 -0 -1 -0 -0 -0 0 0 0 -0 -0 -1 -1 0 0 0 0 -0 -1 -1 -0 -0 -0 -0 -0 -0 -0 -0 -1 -1 -1 -1 -1 -1 -1 -1 -1 -1 -1 -1 -1 -1
0 2 4 0 -3 -4 -2 -2 -3 -3 -2 -0 -1 -2 -2 -2 -2 -2 -3 -2 -2 -1 -0 -0 0 1 1 1 1 1 1 2 2 2 1 1 -0 -1 -1 -1 -0 0 0 0 -0 -0 -0 0 -0 -0 -0 0 -0 -1 -1 -0 0 0 0 0 0 0 -0 -0 -0 -0 0 1 1 0 -0 -1 -1 -1 -1 -0 -0 -0 -1 -1 -1 -0 -0 -0 -0 -0 -0 -0 -0 -1 -1 -1 -1 -1 -1 -1 -1 -1 -1 -1 -0 -0 -0
-2 -1 -0 -2 -4 -4 -1 -2 -3 -3 -3 -1 -1 -2 -4 -2 -2 -2 -2 -1 -1 -2 -1 -0 0 1 1 1 1 1 1 2 2 2 1 1 -0 -1 -1 -0 -0 0 0 -0 -0 -0 -0 0 -0 -1 -1 -0 -0 -1 -1 -1 -0 0 0 0 0 -0 -0 -0 -0 -0 0 0 0 0 -0 -1 -1 -1 -1 -0 -0 -1 -2 -1 -1 -1 -1 -0 -0 -0 -0 -0 -0 -0 -1 -1 -1 -1 -1 -1 -1 -1 -1 -1 -0 -0 -0
-2 -1 -2 -3 -4 -3 -0 -2 -2 -2 -4 -2 -2 -2 -3 -2 -2 -1 -0 0 -1 -2 -1 -0 0 0 1 1 1 1 1 2 2 2 1 0 -0 -1 -1 -0 -0 -0 -0 -0 -0 -0 -0 -0 -0 -1 -1 -0 -1 -1 -1 -1 -0 0 0 0 0 -0 -1 -1 -1 -0 -0 0 0 0 -0 -1 -2 -1 -1 -1 -1 -1 -2 -2 -1 -1 -1 -0 -0 -0 -0 -0 -0 -0 -1 -1 -1 -1 -1 -1 -1 -1 -1 -1 -1 -1 -1
-1 -1 -1 -3 -4 -3 -0 -2 -2 -2 -3 -3 -2 -2 -2 -1 -0 0 -0 1 -0 -2 -1 -0 -0 0 0 1 1 1 2 2 2 2 1 0 -0 -0 -1 -0 -0 -0 -0 -0 -0 -0 -1 -0 -0 -0 -0 -0 -0 -1 -1 -0 -0 0 0 0 0 -0 -1 -1 -1 -1 -1 0 0 0 -1 -2 -2 -2 -1 -1 -1 -1 -2 -1 -1 -1 -1 -0 -0 -0 -0 -0 -1 -1 -1 -1 -1 -1 -1 -1 -1 -1 -1 -1 -1 -1 -1
-1 -2 -2 -3 -4 -4 -2 -2 -2 -2 -3 -3 -2 -2 -1 -0 -0 0 0 1 -0 -2 -1 -1 -0 0 0 1 1 1 2 2 2 2 1 0 -0 -0 -1 -0 -0 -0 -0 -0 -0 -0 -0 -0 -0 -0 -0 -0 -0 -1 -0 -0 -0 -0 0 0 0 -0 -0 -1 -1 -1 -0 0 0 0 -1 -2 -2 -2 -1 -1 -1 -1 -1 -1 -1 -1 -0 -0 -0 -0 -1 -1 -1 -1 -1 -1 -1 -1 -1 -1 -1 -1 -1 -1 -1 -1 -1
-1 -2 -2 -2 -4 -4 -4 -3 -2 -1 -3 -3 -2 -1 -1 -1 -0 -0 -0 0 -0 -1 -1 -1 -0 -0 -0 0 1 2 2 2 2 1 1 0 -0 -0 -1 -0 -0 -0 -0 -0 -0 -0 -0 -0 -0 -0 -0 -0 -1 -1 -1 -1 -1 -0 -0 0 0 -0 -0 -0 -0 -0 -0 -0 -0 -0 -1 -2 -2 -2 -1 -1 -1 -1 -1 -1 -1 -1 -1 -1 -1 -1 -1 -1 -1 -1 -1 -1 -1 -1 -1 -1 -1 -1 -1 -1 -1 -1 -1
-1 -1 -1 -1 -2 -3 -3 -2 -1 -1 -1 -1 -2 -2 -1 -0 -0 -0 -0 -0 -0 -0 -1 -1 -1 -0 0 1 1 2 2 2 2 1 1 0 -0 -0 -1 -0 -0 -0 -0 -0 -1 -1 -0 -0 -0 -0 -0 -1 -1 -1 -1 -1 -1 -1 -0 -0 -0 -0 -0 -0 -0 -0 -0 -0 -1 -1 -1 -1 -2 -2 -2 -1 -1 -1 -1 -1 -1 -1 -1 -1 -1 -1 -1 -1 -1 -1 -1 -1 -1 -1 -1 -1 -1 -1 -1 -2 -2 -1 -1
-0 -0 -0 -1 -1 -2 -1 -1 -0 -0 0 -0 -1 -2 -2 -1 -0 -0 -0 -0 -1 -1 -1 -1 -0 0 0 1 2 2 2 2 2 1 1 0 -0 -1 -1 -1 -0 0 -0 -0 -1 -1 -1 -0 -0 -0 -0 -1 -1 -1 -1 -1 -1 -1 -0 0 -0 -0 -1 -1 -1 -1 -0 -0 -0 -1 -1 -1 -2 -2 -2 -1 -1 -1 -1 -1 -0 -0 -1 -1 -1 -1 -1 -1 -1 -1 -2 -2 -2 -1 -1 -1 -1 -1 -1 -1 -1 -1 -1
1 1 1 -0 -1 -1 0 0 0 0 1 0 -0 -1 -2 -1 -1 -1 -1 -1 -1 -1 -1 -0 -0 0 1 1 1 2 2 2 1 1 1 0 -0 -1 -1 -1 -0 0 -0 -0 -1 -1 -1 -1 -0 -0 -0 -0 -0 -1 -1 -1 -1 -1 -0 -0 0 -0 -1 -1 -1 -1 -0 -0 -0 -1 -1 -1 -1 -1 -1 -1 -1 -1 -1 -1 -0 -0 -0 -0 -1 -1 -1 -1 -1 -1 -2 -2 -2 -1 -1 -1 -1 -1 -1 -1 -1 -1 -1
1 1 1 0 -0 -0 1 1 0 0 1 1 0 -0 -2 -2 -2 -1 -1 -1 -1 -0 -1 -0 -0 0 1 1 1 1 1 1 1 0 0 0 -0 -0 -1 -1 -0 -0 -0 -0 -1 -1 -1 -1 -0 -0 0 0 -0 -0 -1 -1 -1 -1 -1 -1 -0 0 -0 -1 -1 -1 0 0 -0 -0 -1 -1 -1 -1 -1 -1 -1 -1 -1 -0 -0 -0 -0 -0 -1 -1 -1 -1 -1 -2 -2 -1 -1 -1 -1 -1 -1 -1 -1 -1 -1 -1 -1
0 0 -0 -1 -1 -0 0 0 -0 -0 0 1 0 -0 -1 -2 -2 -2 -1 -1 -1 -1 -2 -0 -0 0 0 0 1 1 1 1 1 1 0 0 -0 -0 -0 -1 -1 -0 -0 -0 -1 -1 -1 -1 -0 -0 0 0 0 0 -0 -0 -0 -0 -0 -1 -1 -0 -0 -0 -0 -0 0 0 0 0 0 -0 -0 -1 -1 -1 -1 -0 -0 -0 0 0 -0 -0 -1 -1 -1 -1 -1 -1 -1 -1 -1 -1 -1 -1 -1 -1 -1 -1 -1 -1 -1
-0 -0 -1 -2 -2 -2 -1 -1 -1 -1 -0 0 0 -0 -1 -2 -2 -2 -2 -2 -2 -2 -2 -0 0 -0 -0 0 1 1 1 1 0 0 0 0 0 -0 -0 -1 -1 -0 -0 -0 -1 -1 -1 -0 -0 0 0 0 0 0 0 -0 -0 -0 0 -1 -1 -0 -0 0 0 0 0 0 0 1 1 0 -0 -0 -0 -0 -0 -0 0 0 0 0 0 -0 -0 -1 -1 -1 -1 -1 -1 -1 -1 -1 -1 -1 -1 -1 -1 -1 -1 -1 -1
-0 -1 -1 -3 -3 -2 -1 -1 -1 -1 -0 -0 -0 -1 -1 -1 -1 -2 -2 -2 -2 -2 -0 0 0 -0 -0 0 1 1 1 1 1 0 0 0 0 0 -0 -1 -1 -0 -0 -1 -1 -1 -1 -0 -0 0 0 0 0 0 0 0 -0 0 1 0 -0 -0 -0 0 1 0 0 0 1 1 1 0 0 -0 -0 -0 -0 -0 0 0 0 0 0 0 -0 -0 -1 -1 -1 -1 -1 -1 -1 -1 -1 -1 -0 -0 -0 -1 -1 -1 -2
-1 -1 -2 -3 -3 -2 -1 -1 -1 -1 -1 -1 -1 -1 -1 -1 -1 -1 -1 -1 -1 -0 1 0 0 -0 0 0 1 1 2 1 1 1 1 1 1 0 -0 -1 -1 -0 -0 -1 -1 -1 -1 -0 -0 0 0 0 0 0 0 0 0 0 0 0 0 0 0 1 1 1 0 1 1 1 1 0 0 -0 -0 -0 -0 -0 -0 -0 -0 -0 0 0 -0 -0 -0 -1 -1 -1 -1 -1 -1 -1 -0 -0 0 -0 -1 -1 -2 -2 -2
-1 -1 -2 -2 -3 -2 -1 -1 -1 -1 -1 -1 -1 -0 -0 -0 -0 -0 -1 -1 -0 0 0 0 0 0 0 0 1 1 1 1 1 1 1 1 1 0 -0 -1 -1 -0 -0 -1 -1 -1 -1 -0 -0 0 0 0 0 0 0 0 0 0 0 -0 0 0 1 1 1 1 1 1 1 1 0 0 0 0 -0 0 0 0 0 -0 -0 0 0 -0 -0 -0 0 -0 -1 -1 -1 -1 -1 -1 -0 -0 -0 -0 -1 -1 -1 -1 -1
-1 -0 -1 -1 -2 -2 -1 -0 -0 -0 -1 -1 -0 -0 -0 -0 -0 -0 -0 -0 0 0 0 0 0 0 0 0 0 0 1 1 1 0 1 1 1 0 -0 -1 -0 0 0 -1 -1 -1 -1 -0 -0 -0 0 -0 -0 -0 -0 0 1 1 1 1 1 1 1 1 1 1 1 1 0 1 1 1 1 1 1 1 1 1 1 1 1 1 1 1 1 1 0 0 -0 -0 -0 -0 -0 -0 -0 -0 -1 -1 -0 -0 -0 -0 -0
-1 -0 0 -0 -1 -1 -1 -1 0 0 -0 -0 -0 0 0 -0 -1 -1 -1 -0 0 0 -0 0 0 0 0 0 0 0 0 0 0 0 0 0 0 0 0 -1 -0 0 0 -1 -1 -1 -1 -0 -0 -0 -0 -0 -0 -0 -0 0 1 1 1 1 1 1 1 1 1 1 1 0 1 1 2 2 3 2 2 2 2 2 2 2 2 2 2 2 2 1 1 1 0 0 -0 -0 -1 -1 -1 -1 -1 -1 -0 -0 -0 -0 -0
-0 0 1 0 -1 -2 -2 -1 -0 1 1 -1 -1 -0 0 -0 -1 -1 -1 -0 -0 -0 -0 0 0 0 0 0 0 -0 -0 -0 0 0 0 0 0 0 0 -0 -0 -0 0 -0 -1 -1 -1 -0 -0 0 -0 -0 -0 -1 -1 -0 1 1 2 2 2 1 1 1 1 1 1 1 1 2 3 3 3 2 2 2 2 2 2 2 2 2 2 1 1 1 1 0 0 -0 -0 -1 -1 -1 -1 -1 -0 -0 -0 -0 -0 -0 -0
-0 0 0 0 -1 -2 -3 -2 -0 1 1 -0 -1 -1 -0 -0 -0 -1 -1 -1 -0 -0 0 0 0 1 0 0 0 -0 -0 -0 -0 0 0 0 0 0 1 0 -0 -0 0 -0 -1 -1 -0 -0 -0 0 0 -0 -0 -1 -1 -0 0 1 2 2 1 1 1 0 1 1 1 1 2 2 2 2 2 2 2 2 2 2 2 2 2 1 1 1 1 1 0 0 -0 -0 -0 -0 -1 -1 -1 -0 -0 -0 -0 -0 -0 -0 -0
-1 -1 -0 -0 -1 -1 -2 -2 -1 0 0 -0 -1 -1 -1 -1 -0 -0 -1 -1 -1 -0 0 0 0 0 0 0 0 -0 -0 -0 0 0 0 0 0 0 1 1 0 -1 -0 -1 -1 -1 -0 -0 -0 -0 0 -0 -0 -0 -0 -0 1 1 2 1 1 0 0 0 1 1 2 2 2 2 2 2 2 2 2 2 2 2 2 2 2 1 1 1 1 1 0 0 0 -0 -0 -0 -0 -0 -0 -0 -0 -0 -0 -0 -0 -0 -0
-1 -1 -1 -1 -1 -1 -1 -2 -1 -1 -0 -1 -1 -1 -1 -1 -1 -0 0 -0 -1 -1 -0 0 0 0 0 0 0 -0 -0 -0 -0 -0 -0 -0 -0 0 1 2 1 -0 -1 -1 -1 -1 -1 -1 -1 -1 -0 -1 -1 -0 -0 0 1 1 1 1 0 -0 0 0 1 1 1 2 2 2 2 2 2 2 2 2 2 2 2 2 1 1 1 1 1 1 0 0 0 -0 -0 -0 -0 -0 -0 -0 -0 -0 -0 -0 -0 -0 -0
-1 -1 -2 -2 -2 -2 -1 -2 -2 -1 -1 -1 -1 -1 -0 -1 -1 -0 0 0 0 0 1 1 1 1 1 1 0 0 -0 -0 -0 -0 -1 -1 -0 0 1 2 1 -0 -1 -1 -1 -1 -1 -1 -1 -1 -1 -1 -1 -1 -0 1 1 1 1 0 -0 -0 0 1 1 1 1 1 1 1 2 2 2 2 2 2 2 2 2 2 1 1 1 1 1 1 0 0 0 -0 -0 -0 -0 -0 -0 -0 -0 -0 -0 -0 -0 -0 -0
-2 -2 -2 -2 -2 -2 -1 -2 -2 -1 -1 -1 -1 -1 -0 -0 -0 -0 0 1 1 2 2 1 1 1 1 1 0 0 -0 0 -0 -0 -1 -1 -1 -0 0 1 1 -0 -1 -1 -1 -1 -1 -0 -1 -1 -1 -1 -1 -1 -0 1 1 1 0 -1 -1 -0 0 1 1 1 1 1 1 2 2 2 2 2 2 2 2 2 2 2 2 1 1 1 1 1 0 0 -0 -0 -0 0 0 -0 -0 -0 -0 -0 -0 -0 -0 -0 -0
-3 -2 -3 -3 -2 -1 -1 -1 -1 -1 -1 -1 -1 -0 0 -0 -0 -0 1 1 1 1 1 1 1 1 1 1 0 0 -0 -0 -0 -0 -1 -1 -1 -0 0 0 -0 -1 -1 -1 -1 -1 -1 -0 -0 -1 -1 -1 -1 -1 -0 1 1 0 -1 -1 -1 -1 -0 0 1 1 1 2 2 2 2 2 2 2 2 2 2 2 2 2 1 1 1 1 1 0 0 0 0 0 0 0 0 -0 -0 -0 -0 -0 -0 -0 -0 -0 -0
-2 -2 -3 -3 -3 -2 -1 -0 -1 -2 -1 -1 -1 -0 1 0 -0 -0 0 0 0 1 1 1 1 0 0 0 0 -0 -1 -1 -1 -1 -1 -1 -1 -1 -0 -0 -0 -1 -1 -0 -0 -1 -1 -0 -0 -0 0 0 0 0 0 1 1 0 -1 -1 -1 -1 -0 0 1 1 1 2 2 2 2 2 2 2 2 2 2 2 1 1 1 1 1 1 0 0 0 0 0 1 0 0 0 0 -0 -0 -0 -0 -0 -0 -0 -0 -0
-1 -2 -2 -3 -3 -3 -2 -0 -1 -2 -1 -1 -1 -0 1 1 0 -0 -1 -1 -0 0 0 1 1 0 -0 -0 -0 -0 -1 -1 -1 -1 -1 -1 -1 -1 -0 -0 -1 -1 -1 -1 -1 -1 -1 -1 -0 -0 0 1 1 1 1 1 1 0 -1 -1 -1 -1 -0 0 1 1 1 2 2 2 2 1 1 1 1 1 1 1 1 1 1 1 1 0 0 0 0 0 0 0 0 0 0 0 -0 -0 -0 0 0 0 0 0 0
-1 -2 -2 -2 -2 -1 -2 -1 -2 -2 -0 -1 -1 -1 -0 1 1 0 -1 -1 -1 -0 0 0 0 0 0 -0 -0 -0 -1 -1 -1 -1 -1 -1 -1 -0 -0 -0 -0 -1 -1 -1 -1 -1 -1 -1 -1 -1 0 1 1 1 2 2 1 0 -1 -1 -1 -1 0 1 1 1 2 2 2 1 1 1 1 1 1 1 1 1 1 1 1 1 0 0 0 0 0 0 0 0 0 0 0 0 0 0 0 0 0 0 0 0 -0
-1 -2 -2 -2 -1 -0 -1 -2 -2 -1 1 -0 -1 -2 -1 1 1 1 -0 -1 -1 -0 -0 -1 -0 0 0 0 0 0 -0 -0 -0 -1 -1 -1 -1 -1 -0 -0 -0 -0 -1 -1 -0 -0 -1 -1 -1 -1 -0 0 1 1 2 2 2 1 0 -0 -0 -0 0 1 1 2 2 2 1 1 1 1 1 1 1 1 1 1 1 1 1 1 0 0 0 0 0 1 1 1 0 0 0 0 0 0 1 1 1 0 0 -0 -1
-2 -2 -2 -2 -1 -0 0 -2 -2 -0 1 -0 -2 -2 -1 0 0 0 -0 -1 -1 -0 -1 -1 -1 -1 -0 0 0 0 0 0 0 0 -0 -0 -0 -0 -0 -0 0 1 0 -0 -1 -1 -0 -0 -1 -1 -1 -0 0 1 1 1 1 1 0 0 0 0 1 1 2 2 2 1 1 1 1 1 0 0 0 1 1 1 1 1 1 0 0 0 0 0 1 1 1 1 1 1 0 0 -0 0 1 1 0 0 0 0 -0
-2 -2 -2 -1 -1 -0 -0 -3 -2 0 0 -1 -2 -3 -2 -1 -0 -1 -1 -1 -1 -0 0 0 -1 -2 -2 -1 -0 0 0 0 0 0 -0 -0 0 0 -0 0 0 1 1 0 -0 -0 -0 0 -0 -0 -1 -1 -1 -0 0 1 1 1 1 1 1 1 1 1 2 2 1 1 1 1 0 0 0 0 0 1 1 1 1 1 1 0 0 0 1 1 1 1 1 1 1 1 0 -0 -1 0 0 0 0 0 0 0 -0
-3 -2 -1 -1 -0 -0 -1 -2 -1 0 -1 -2 -2 -3 -3 -2 -1 -1 -2 -2 -1 -1 0 1 1 0 -1 -1 -1 -0 -0 -0 -0 -0 -0 -0 0 0 0 0 0 0 1 1 1 1 0 0 0 0 -0 -1 -1 -1 -1 -0 0 1 1 1 2 2 2 2 2 1 1 1 0 0 -0 -0 -0 0 0 0 0 1 1 0 0 0 0 0 1 1 1 2 2 1 1 0 -0 -0 -1 -0 0 0 0 0 -0 -0 -1
-2 -2 -2 -1 -1 -1 -1 -0 0 0 -1 -2 -2 -3 -3 -3 -1 -0 -1 -1 -1 -1 -0 0 1 2 1 0 -0 -0 -0 -1 -1 -1 -0 -0 0 0 0 0 0 0 0 1 1 1 1 0 -0 -0 -0 -1 -1 -1 -1 -1 -0 0 1 1 2 2 2 2 2 2 1 1 0 0 -0 -0 0 0 0 0 0 0 0 -0 -0 -0 -0 0 1 1 1 2 1 1 0 -0 -1 -1 -0 -0 0 0 0 -0 -1 -1 -1
0 -0 -1 -1 -1 -1 -1 -0 -0 -1 -0 -1 -2 -3 -3 -3 -1 -0 0 0 -0 -0 -0 0 1 1 2 1 0 -1 -1 -1 -1 -1 -1 -0 0 0 1 1 1 1 1 1 2 2 1 0 -0 -1 -1 -1 -1 -1 -1 -1 -1 -0 0 1 1 1 2 2 2 2 2 1 1 1 1 1 1 1 1 0 0 -0 -0 -0 -1 -1 -0 -0 0 1 1 1 1 0 0 -0 -0 -0 -0 -0 -0 -0 -0 -0 -1 -1 -1
1 0 -0 -0 -1 -1 -1 -2 -2 -1 -1 -1 -2 -2 -2 -2 -1 0 1 1 1 1 -0 -0 -0 0 1 1 1 -0 -1 -0 -0 -0 -0 0 0 1 1 1 1 1 2 2 2 2 1 0 -0 -1 -1 -1 -1 -1 -1 -1 -1 -0 0 0 1 1 2 2 2 3 2 2 1 1 1 1 1 1 1 1 1 0 -0 -0 -0 -0 -0 -0 0 1 1 1 1 0 1 0 0 -0 -0 -0 -0 -0 -0 -1 -1 -1 -1
-1 -1 -1 -0 -0 -1 -1 -1 -1 -1 -1 -1 -1 -2 -2 -2 -1 -0 1 1 2 2 0 -1 -1 -0 0 2 2 2 2 2 2 1 1 1 1 1 1 1 1 2 2 2 2 1 1 0 -0 -0 -1 -1 -1 -1 -1 -1 -1 -0 0 0 1 1 1 2 2 2 2 1 1 0 0 0 0 1 1 1 1 0 0 -0 -0 -0 -0 0 0 1 1 1 1 1 1 1 1 0 0 -0 -0 -0 -0 -0 -1 -1 -0
-2 -2 -2 -1 -1 -1 -1 -1 -1 -1 -1 -1 -1 -2 -2 -2 -2 -1 -1 -0 0 1 1 0 -1 -2 -1 1 2 3 3 2 2 1 1 1 1 1 1 2 2 2 2 2 1 1 1 0 0 -0 -0 -0 -0 -1 -1 -0 0 0 0 1 1 1 1 1 1 1 1 0 -0 -0 -1 -1 -0 -0 0 0 0 -0 -0 -0 -0 -0 0 0 0 1 1 2 2 2 2 1 1 0 0 0 -0 -0 -0 -0 -0 -0 0
-1 -2 -1 -1 -1 -0 -0 -1 -1 -1 -1 -2 -2 -3 -4 -4 -3 -2 -2 -1 -1 -0 0 1 -0 -1 -2 -1 -0 1 2 2 2 1 1 1 1 1 2 2 2 2 1 1 1 1 1 0 0 -0 -0 -0 -0 -1 -1 -0 0 0 0 1 1 0 0 0 0 0 0 -0 -1 -1 -1 -1 -1 -0 -0 -0 -0 -0 -0 -0 0 0 0 0 1 1 2 2 2 2 1 1 0 0 0 -0 -0 -0 -1 -0 -0 0 0
-1 -1 0 0 0 0 -0 -1 -1 -1 -1 -2 -3 -3 -3 -3 -2 -1 -1 -0 0 0 0 1 1 0 -2 -2 -2 -1 0 1 2 2 2 1 1 1 2 2 2 1 1 1 1 1 1 0 -0 -0 -1 -1 -1 -1 -1 -0 -0 -0 0 0 0 0 0 0 0 -0 -0 -1 -1 -1 -1 -1 -1 -0 -0 -0 0 0 0 0 0 0 1 1 1 2 2 2 2 1 0 0 -0 -0 -0 -0 -1 -1 -1 -0 -0 0 1
-1 -1 0 0 0 -0 -1 -1 -1 -1 -1 -1 -1 -1 -0 -0 -0 -0 0 1 1 1 -0 0 1 2 -0 -2 -2 -2 -1 -0 1 1 3 2 -0 -1 0 1 1 1 1 1 1 1 1 0 -1 -1 -2 -1 -1 -1 -1 -1 -0 -0 0 -0 -0 -0 0 -0 -0 -0 -1 -1 -1 -1 -1 -1 -1 -0 -0 0 1 1 1 0 0 1 1 1 2 2 2 1 1 0 -0 -0 -0 -0 -0 -0 -0 -0 -0 -0 0 0 1
-2 -2 -1 -1 -1 -1 -1 -1 -1 -1 -0 0 1 1 1 1 1 0 -0 -0 -0 -1 -2 -2 -1 1 2 0 -1 -1 -1 -0 -1 -1 -1 0 0 -1 -2 -2 -0 1 1 2 2 1 1 -0 -1 -2 -2 -2 -2 -1 -1 -1 -0 -0 0 -0 -0 -0 -0 -0 -0 -0 -1 -1 -1 -1 -1 -0 -0 0 0 1 1 1 0 0 0 0 1 1 1 1 1 1 0 -0 -0 -0 -0 -0 -0 -0 -0 0 0 -0 0 0 1
-1 -1 -1 -1 -2 -1 -1 -0 -0 -0 -0 0 0 1 1 1 0 -0 -1 -1 -2 -2 -3 -3 -3 -1 1 3 3 2 0 -0 -0 -1 -3 -2 0 3 2 2 2 2 2 2 2 2 1 -0 -1 -1 -2 -1 -1 -1 -1 -0 0 0 -0 -0 -0 -0 -0 -0 -0 -0 -0 -1 -1 -1 -0 0 0 1 1 1 1 1 -0 -0 -0 0 1 1 1 1 1 0 -0 -0 -0 -0 -0 -0 -0 -0 0 0 -0 -0 0 0 0
-1 -0 -0 -1 -2 -1 -1 -0 0 -0 -1 -2 -2 -1 -1 -1 -1 -1 -0 -0 -1 -1 -1 -1 -2 -3 -1 2 2 2 1 0 0 1 4 2 1 2 4 5 4 2 1 1 1 2 0 -0 -0 -0 -1 -1 -1 -0 0 0 0 0 0 0 0 0 0 -0 -0 -0 -0 -0 -1 -0 0 1 1 1 1 1 0 -0 -0 -0 0 1 1 1 1 0 0 -0 -0 -0 -0 -0 -0 -0 -1 -1 -0 -0 -0 -0 -0 0 0
-0 -0 -1 -1 -1 -1 -2 -1 -1 -0 -0 -2 -2 -2 -2 -2 -2 -1 -1 -1 -1 -2 -1 1 1 -1 -4 -2 -1 -1 -1 -0 0 1 3 4 2 -1 -1 0 -1 -2 -2 -1 -0 -1 -4 -2 -1 -1 -0 -0 -0 0 1 1 1 0 0 0 0 0 -0 -0 -0 -0 -0 -0 -0 -0 1 1 1 1 0 0 -0 -0 -0 0 1 1 1 1 0 -0 -0 -0 -0 -0 -0 -0 -0 -1 -1 -1 -1 -1 -0 -0 -0 -0 -0
0 1 0 -0 -1 -2 -3 -2 -1 -0 -0 0 -0 -1 -2 -3 -3 -3 -2 -3 -3 -2 -2 -1 1 1 -3 -4 -4 -3 -1 -1 0 1 -0 1 2 1 -2 -2 0 2 3 2 -1 -3 -2 -2 -1 0 -0 0 1 1 1 1 1 1 0 0 -0 -0 -0 -0 -0 -0 -0 -0 -0 0 1 1 1 0 -0 -0 -0 0 1 1 1 1 0 0 -0 -0 -0 -0 -0 -0 -0 -1 -1 -1 -1 -1 -1 -1 -0 -0 -0 -0 -0
1 1 1 -0 -1 -2 -1 -0 -0 -1 -1 -0 -1 -1 -2 -3 -2 -2 -1 -0 -0 -0 -1 -2 -1 -0 0 -3 -3 -3 -1 -0 0 0 -0 -0 1 3 3 1 -1 -3 -3 -4 -4 -3 -2 -1 1 2 -0 0 1 1 1 1 1 1 0 -0 -1 -1 -1 -0 -0 0 0 0 0 0 1 0 -0 -0 -0 0 1 1 1 1 1 0 0 0 -0 -0 -0 -1 -1 -1 -1 -1 -1 -1 -1 -1 -0 -0 -0 -0 -0 -0 -1
2 1 -0 -1 -1 -1 -0 -0 -0 -1 -1 -1 -1 -1 -1 -1 -0 1 2 2 1 1 -0 -1 -1 0 3 3 1 -1 -2 -1 -0 -0 -0 -1 -0 1 3 2 -0 -3 -5 -4 -3 -3 -3 0 1 0 -1 -0 0 0 0 1 1 0 -0 -1 -1 -1 -1 -0 -0 0 0 -0 -0 0 0 0 -0 0 1 1 2 2 2 1 1 0 0 0 -0 -0 -0 -1 -1 -1 -0 -0 -0 -0 -0 -1 -1 -0 -0 -0 -0 -0 -1
1 0 -1 -1 -0 0 0 -1 -1 -1 -1 -1 -1 -0 -0 0 -0 -0 -1 -1 -1 -0 1 1 1 1 2 4 4 3 -0 -2 -2 -1 -0 -1 -1 -0 2 1 0 -0 -1 0 -1 -2 -2 1 0 -1 -1 0 1 1 0 0 0 0 -0 -1 -1 -1 -1 -0 -0 -0 -0 -1 -1 -1 -0 -0 0 1 1 2 2 2 1 1 0 0 0 -0 -0 -0 -0 -0 -0 -0 -0 -0 -0 -0 -1 -1 -1 -1 -1 -1 -1 -1 -1
1 0 -1 -0 -0 0 0 -0 -0 -1 -1 -1 -0 -0 -0 -1 -2 -2 -2 -1 -0 1 2 2 2 2 1 2 3 3 2 -0 -2 -2 -1 -1 -1 -0 1 1 2 3 2 -0 -1 -1 -0 -1 -1 -1 -0 -0 1 2 1 0 -0 -1 -1 -1 -1 -1 -1 -0 -0 -0 -0 -1 -1 -1 -0 0 1 1 2 1 1 1 1 1 0 0 0 0 -0 -0 -0 -0 -0 -0 -0 -0 -1 -1 -1 -1 -1 -1 -1 -1 -1 -1 -1
1 -0 -1 -0 -0 -0 0 0 0 -0 -0 -0 -1 -1 -2 -2 -1 -1 0 2 2 3 2 2 2 3 2 1 0 0 1 2 1 -1 -2 -2 -2 -1 0 1 1 1 0 -0 -1 -1 -0 -0 -1 -2 -2 -4 -3 -1 1 0 -0 -1 -2 -2 -1 -1 -0 -0 -0 -0 -1 -1 -1 -0 0 0 1 1 1 1 1 1 1 1 0 0 -0 -0 -0 -0 -0 -0 0 0 -0 -0 -1 -1 -1 -1 -1 -1 -1 -1 -1 -1 -1
-0 -1 -1 -1 -0 -0 -0 -0 -0 0 0 -0 -1 -1 -2 -1 -0 0 1 1 2 3 3 3 3 3 2 1 1 0 1 2 2 1 -1 -3 -3 -1 -0 0 1 0 0 -1 -1 -1 -1 -0 1 0 -1 -2 -3 -4 -3 -1 -1 -1 -1 -2 -2 -1 -1 -1 -1 -1 -0 -1 -0 -0 0 0 0 1 1 0 0 0 1 0 -0 -1 -1 -1 -1 -0 -0 0 0 -0 -0 -0 -0 -0 -1 -1 -1 -1 -1 -1 -1 -1 -1
Height
1484 1484 1485 1486 1487 1488 1488 1489 1489 1490 1491 1493 1493 1494 1495 1496 1497 1498 1498 1498 1498 1499 1500 1501 1502 1502 1503 1503 1504 1504 1505 1505 1506 1506 1507 1507 1508 1508 1509 1509 1509 1509 1509 1510 1510 1510 1511 1511 1512 1513 1513 1514 1514 1514 1514 1515 1515 1515 1515 1516 1516 1517 1517 1517 1518 1518 1518 1518 1518 1519 1519 1519 1519 1519 1520 1520 1520 1520 1520 1520 1520 1521 1521 1521 1521 1521 1521 1521 1521 1521 1521 1521 1521 1521 1521 1521 1521 1521 1521 1521 1521 1521 1520
1483 1484 1484 1485 1486 1487 1488 1488 1489 1490 1491 1493 1493 1494 1495 1496 1497 1497 1498 1497 1498 1499 1500 1501 1502 1502 1503 1503 1504 1504 1505 1505 1506 1506 1507 1508 1508 1509 1509 1509 1509 1509 1510 1510 1510 1511 1511 1512 1512 1513 1514 1514 1514 1515 1515 1515 1515 1515 1516 1516 1517 1517 1518 1518 1518 1519 1519 1519 1519 1519 1519 1519 1519 1519 1520 1520 1520 1520 1520 1520 1521 1521 1521 1521 1521 1522 1521 1521 1521 1521 1521 1521 1521 1521 1521 1521 1521 1521 1521 1521 1521 1521 1521
1482 1483 1484 1485 1486 1486 1487 1488 1489 1490 1492 1492 1493 1494 1495 1496 1497 1497 1497 1497 1498 1499 1500 1501 1502 1502 1503 1503 1504 1504 1505 1505 1506 1506 1507 1508 1508 1509 1509 1509 1509 1509 1510 1510 1511 1511 1512 1512 1513 1514 1514 1514 1515 1515 1515 1515 1515 1516 1516 1516 1517 1517 1518 1519 1519 1519 1519 1519 1519 1519 1519 1519 1520 1520 1520 1520 1520 1520 1520 1521 1521 1521 1522 1522 1522 1522 1522 1522 1522 1521 1521 1521 1521 1521 1521 1521 1521 1521 1521 1521 1521 1521 1521
1482 1483 1483 1484 1485 1486 1487 1488 1489 1490 1492 1492 1493 1494 1495 1496 1497 1497 1497 1497 1498 1499 1500 1501 1502 1502 1503 1503 1504 1504 1505 1505 1506 1506 1507 1508 1508 1509 1509 1509 1509 1510 1510 1510 1511 1511 1512 1512 1513 1514 1514 1514 1515 1515 1515 1515 1515 1516 1516 1517 1517 1518 1519 1519 1520 1520 1520 1519 1519 1519 1519 1519 1520 1520 1520 1520 1520 1520 1521 1521 1521 1521 1522 1522 1522 1522 1522 1522 1522 1522 1522 1522 1522 1522 1522 1522 1522 1521 1521 1521 1521 1521 1521
1481 1482 1483 1484 1485 1486 1487 1488 1489 1490 1492 1492 1493 1494 1495 1496 1497 1497 1497 1498 1499 1499 1500 1501 1502 1502 1503 1504 1504 1504 1505 1505 1506 1507 1507 1508 1508 1509 1509 1509 1509 1510 1510 1510 1511 1511 1512 1512 1513 1514 1514 1515 1515 1516 1516 1515 1515 1516 1517 1517 1518 1519 1519 1519 1520 1520 1520 1519 1519 1519 1519 1519 1520 1520 1520 1520 1521 1521 1521 1521 1521 1522 1522 1522 1522 1522 1522 1522 1522 1522 1522 1522 1522 1522 1522 1522 1522 1522 1522 1522 1521 1521 1521
1480 1481 1483 1484 1485 1486 1487 1488 1489 1490 1491 1492 1493 1494 1495 1496 1496 1497 1497 1498 1498 1499 1500 1501 1502 1502 1503 1504 1504 1504 1505 1505 1506 1507 1507 1508 1508 1509 1509 1509 1509 1509 1510 1510 1511 1511 1512 1512 1513 1514 1514 1515 1515 1516 1516 1516 1516 1516 1517 1518 1519 1519 1519 1519 1519 1519 1520 1519 1519 1519 1519 1520 1520 1520 1521 1521 1521 1521 1521 1521 1522 1522 1522 1522 1522 1522 1522 1522 1522 1522 1522 1522 1522 1522 1522 1522 1522 1522 1522 1522 1522 1521 1521
1480 1481 1482 1483 1484 1485 1486 1487 1489 1490 1491 1492 1494 1496 1497 1496 1496 1497 1497 1498 1498 1498 1499 1500 1501 1502 1503 1503 1504 1504 1505 1506 1506 1507 1508 1508 1508 1509 1509 1509 1509 1509 1510 1510 1511 1511 1512 1512 1513 1513 1514 1515 1515 1516 1517 1517 1517 1517 1517 1518 1519 1519 1519 1519 1519 1519 1519 1519 1519 1519 1520 1520 1520 1521 1521 1521 1521 1521 1522 1522 1522 1522 1522 1522 1522 1522 1522 1522 1522 1522 1522 1522 1522 1522 1522 1522 1522 1522 1522 1522 1522 1522 1521
1479 1480 1481 1483 1484 1485 1486 1487 1488 1489 1491 1492 1494 1495 1496 1496 1496 1496 1497 1498 1498 1498 1499 1500 1501 1502 1503 1503 1504 1504 1505 1506 1507 1507 1508 1508 1508 1509 1509 1509 1509 1509 1510 1511 1511 1511 1512 1512 1513 1514 1514 1515 1515 1516 1517 1517 1517 1517 1518 1518 1518 1519 1519 1519 1519 1519 1519 1519 1520 1520 1520 1520 1520 1521 1521 1521 1521 1522 1522 1522 1522 1522 1522 1522 1522 1522 1523 1523 1523 1523 1523 1523 1523 1523 1523 1523 1523 1522 1522 1522 1522 1522 1522
1478 1479 1481 1482 1484 1485 1486 1486 1488 1489 1490 1492 1493 1494 1495 1495 1495 1496 1497 1497 1497 1498 1499 1499 1501 1502 1502 1503 1504 1505 1505 1506 1507 1507 1508 1508 1508 1508 1509 1509 1509 1510 1510 1511 1511 1512 1512 1513 1513 1514 1514 1515 1515 1516 1517 1517 1517 1518 1518 1518 1519 1519 1519 1519 1519 1519 1519 1520 1520 1520 1520 1520 1521 1521 1521 1522 1522 1522 1522 1522 1522 1522 1523 1523 1523 1523 1523 1523 1523 1523 1523 1523 1523 1523 1523 1523 1523 1523 1522 1522 1522 1522 1522
1478 1479 1481 1482 1483 1484 1485 1486 1487 1489 1490 1491 1492 1493 1494 1495 1495 1496 1497 1497 1497 1498 1498 1499 1500 1501 1502 1503 1504 1505 1505 1506 1507 1507 1508 1508 1508 1508 1508 1509 1509 1510 1510 1511 1511 1512 1512 1513 1513 1514 1514 1515 1515 1516 1516 1517 1517 1517 1518 1518 1519 1519 1519 1519 1519 1519 1520 1520 1520 1520 1520 1521 1521 1521 1522 1522 1522 1522 1522 1522 1522 1523 1523 1523 1523 1523 1523 1523 1523 1523 1523 1523 1523 1523 1523 1523 1523 1523 1522 1522 1522 1522 1522
1479 1480 1481 1482 1483 1484 1485 1486 1487 1488 1489 1491 1492 1492 1494 1494 1495 1495 1496 1497 1497 1498 1498 1499 1500 1501 1502 1503 1504 1505 1506 1506 1507 1507 1508 1508 1508 1508 1508 1509 1509 1510 1511 1511 1511 1512 1512 1513 1513 1514 1514 1515 1515 1516 1516 1517 1517 1517 1518 1518 1519 1519 1519 1519 1519 1519 1520 1520 1520 1520 1521 1521 1521 1521 1522 1522 1522 1522 1522 1523 1523 1523 1523 1523 1523 1523 1523 1523 1523 1523 1523 1523 1523 1523 1523 1523 1523 1523 1523 1522 1522 1522 1522
1479 1479 1480 1481 1482 1484 1485 1486 1486 1487 1489 1490 1491 1492 1493 1494 1494 1495 1496 1497 1497 1498 1498 1499 1500 1501 1502 1503 1504 1505 1506 1506 1507 1508 1508 1508 1508 1508 1509 1509 1510 1510 1511 1511 1511 1512 1512 1513 1513 1514 1514 1515 1515 1516 1516 1517 1517 1517 1518 1518 1519 1519 1519 1520 1520 1520 1520 1520 1520 1521 1521 1521 1521 1522 1522 1522 1522 1522 1523 1523 1523 1523 1523 1523 1523 1523 1523 1523 1523 1523 1523 1523 1523 1523 1523 1523 1523 1523 1523 1522 1522 1522 1522
1478 1479 1480 1481 1482 1483 1484 1485 1486 1487 1488 1489 1491 1492 1493 1494 1494 1495 1496 1497 1497 1497 1498 1499 1500 1501 1502 1503 1504 1505 1505 1506 1507 1507 1508 1508 1508 1508 1509 1509 1510 1510 1511 1511 1511 1512 1512 1513 1514 1514 1515 1515 1515 1516 1516 1517 1517 1517 1518 1518 1519 1519 1519 1520 1520 1520 1520 1520 1520 1521 1521 1521 1522 1522 1522 1522 1522 1523 1523 1523 1523 1523 1523 1523 1523 1523 1523 1523 1523 1523 1523 1523 1523 1523 1523 1523 1523 1523 1523 1522 1522 1522 1522
1477 1479 1479 1480 1481 1483 1484 1485 1486 1487 1487 1489 1490 1491 1492 1494 1495 1495 1496 1497 1497 1497 1498 1499 1499 1501 1502 1503 1504 1504 1505 1506 1507 1507 1508 1508 1508 1508 1509 1509 1510 1510 1510 1511 1511 1512 1512 1513 1514 1514 1515 1515 1516 1516 1516 1517 1517 1517 1518 1518 1519 1519 1519 1520 1520 1520 1520 1520 1521 1521 1521 1521 1522 1522 1522 1522 1523 1523 1523 1523 1523 1523 1523 1523 1523 1524 1524 1524 1524 1524 1524 1523 1523 1523 1523 1523 1523 1523 1523 1522 1522 1522 1522
1477 1478 1479 1480 1481 1482 1484 1484 1485 1486 1487 1488 1489 1490 1492 1493 1494 1495 1496 1496 1497 1497 1497 1499 1499 1500 1501 1502 1504 1504 1505 1506 1507 1507 1508 1508 1508 1508 1509 1509 1510 1510 1510 1511 1511 1512 1512 1513 1514 1514 1515 1515 1516 1516 1516 1517 1517 1517 1518 1518 1519 1519 1519 1520 1520 1520 1520 1520 1521 1521 1521 1521 1522 1522 1522 1522 1523 1523 1523 1523 1523 1523 1523 1524 1524 1524 1524 1524 1524 1524 1524 1523 1523 1523 1523 1523 1523 1523 1523 1522 1522 1522 1522
1476 1477 1478 1479 1481 1482 1483 1484 1485 1486 1486 1488 1489 1490 1491 1492 1493 1494 1495 1496 1497 1497 1497 1498 1499 1500 1501 1502 1503 1504 1505 1506 1507 1507 1507 1508 1508 1508 1509 1509 1510 1510 1510 1511 1511 1512 1512 1513 1514 1514 1515 1515 1516 1516 1517 1517 1517 1517 1518 1518 1519 1519 1519 1519 1520 1520 1520 1521 1521 1521 1521 1521 1522 1522 1522 1523 1523 1523 1523 1523 1523 1524 1524 1524 1524 1524 1524 1524 1524 1524 1524 1523 1523 1523 1523 1523 1523 1523 1523 1522 1522 1522 1522
1475 1477 1478 1479 1480 1482 1483 1484 1485 1485 1486 1488 1489 1489 1491 1492 1493 1494 1494 1495 1496 1497 1497 1498 1499 1500 1501 1502 1503 1504 1505 1506 1506 1507 1507 1508 1508 1508 1509 1509 1510 1510 1510 1511 1511 1512 1512 1513 1514 1514 1515 1515 1516 1516 1516 1517 1517 1517 1518 1518 1519 1519 1519 1519 1520 1520 1520 1521 1521 1521 1521 1521 1522 1522 1522 1523 1523 1523 1523 1523 1524 1524 1524 1524 1524 1524 1524 1524 1524 1524 1524 1523 1523 1523 1523 1523 1523 1523 1522 1522 1522 1522 1521
1475 1476 1478 1479 1480 1481 1482 1483 1484 1485 1486 1487 1489 1489 1490 1491 1492 1493 1494 1495 1496 1497 1497 1498 1499 1499 1500 1502 1503 1504 1505 1506 1506 1507 1507 1508 1508 1508 1509 1509 1510 1510 1510 1511 1511 1512 1513 1513 1514 1514 1515 1515 1516 1516 1516 1517 1517 1518 1518 1519 1519 1519 1519 1519 1520 1520 1520 1520 1521 1521 1521 1521 1522 1522 1522 1523 1523 1523 1523 1523 1524 1524 1524 1524 1524 1524 1524 1524 1524 1524 1523 1523 1523 1523 1523 1523 1523 1522 1522 1522 1522 1521 1521
1475 1476 1477 1479 1480 1481 1482 1483 1484 1484 1486 1487 1488 1489 1490 1491 1492 1493 1494 1494 1495 1496 1497 1497 1498 1499 1500 1502 1503 1504 1505 1506 1506 1507 1507 1507 1508 1508 1509 1509 1510 1510 1510 1511 1511 1512 1513 1513 1514 1514 1515 1515 1516 1516 1517 1517 1517 1518 1518 1519 1519 1519 1519 1519 1520 1520 1520 1520 1521 1521 1521 1521 1522 1522 1522 1523 1523 1523 1523 1523 1524 1524 1524 1524 1524 1524 1524 1524 1523 1523 1523 1523 1523 1523 1523 1523 1522 1522 1522 1522 1521 1521 1521
1474 1476 1477 1479 1479 1480 1481 1482 1483 1484 1485 1486 1488 1489 1489 1490 1491 1492 1493 1494 1495 1496 1496 1497 1498 1499 1500 1501 1503 1504 1504 1505 1506 1506 1507 1507 1508 1508 1509 1509 1509 1510 1510 1511 1511 1512 1513 1513 1514 1514 1515 1515 1516 1516 1517 1517 1518 1518 1518 1519 1519 1519 1519 1519 1520 1520 1520 1520 1521 1521 1521 1521 1522 1522 1522 1523 1523 1523 1523 1523 1523 1523 1523 1524 1523 1523 1523 1523 1523 1523 1523 1523 1523 1523 1523 1522 1522 1522 1522 1521 1521 1521 1521
1474 1475 1477 1478 1479 1480 1481 1482 1483 1484 1485 1486 1487 1488 1489 1490 1490 1491 1492 1494 1494 1495 1496 1497 1498 1499 1500 1501 1502 1503 1504 1505 1505 1506 1507 1507 1508 1508 1509 1509 1509 1510 1510 1511 1512 1512 1513 1513 1514 1514 1515 1515 1516 1516 1517 1517 1518 1518 1518 1519 1519 1519 1519 1520 1520 1520 1520 1520 1521 1521 1521 1521 1522 1522 1522 1523 1523 1523 1523 1523 1523 1523 1523 1523 1523 1523 1523 1523 1523 1523 1523 1523 1523 1523 1522 1522 1522 1522 1521 1521 1521 1521 1520
1473 1474 1475 1477 1478 1479 1480 1481 1482 1483 1484 1485 1486 1487 1488 1489 1490 1491 1492 1493 1494 1495 1495 1496 1497 1499 1499 1501 1502 1503 1504 1504 1505 1506 1507 1507 1508 1508 1509 1509 1509 1510 1510 1511 1511 1512 1513 1513 1514 1514 1515 1515 1516 1516 1517 1517 1518 1518 1518 1519 1519 1519 1519 1519 1520 1520 1520 1520 1521 1521 1521 1521 1522 1522 1522 1522 1523 1523 1523 1523 1523 1523 1523 1523 1523 1523 1523 1523 1523 1523 1523 1523 1522 1522 1522 1522 1522 1521 1521 1521 1520 1520 1520
1472 1473 1474 1475 1477 1478 1479 1480 1481 1482 1483 1484 1485 1486 1487 1488 1489 1490 1491 1492 1493 1494 1495 1496 1497 1498 1499 1500 1501 1503 1504 1504 1505 1506 1506 1507 1508 1508 1509 1509 1509 1510 1510 1511 1511 1512 1513 1513 1514 1514 1515 1515 1516 1516 1517 1517 1517 1518 1518 1519 1519 1519 1519 1519 1519 1520 1520 1520 1520 1521 1521 1521 1522 1522 1522 1522 1522 1523 1523 1523 1523 1523 1523 1523 1523 1523 1523 1523 1522 1522 1522 1522 1522 1522 1522 1521 1521 1521 1521 1520 1520 1520 1519
1471 1472 1473 1474 1475 1477 1478 1479 1480 1482 1483 1484 1484 1485 1486 1488 1489 1490 1490 1491 1492 1493 1494 1495 1496 1498 1499 1500 1501 1502 1503 1504 1505 1506 1506 1507 1508 1508 1509 1509 1509 1510 1510 1511 1511 1512 1513 1513 1514 1514 1515 1515 1516 1516 1517 1517 1517 1518 1518 1519 1519 1519 1519 1519 1519 1520 1520 1520 1520 1521 1521 1521 1521 1522 1522 1522 1522 1522 1522 1523 1523 1523 1523 1523 1522 1522 1522 1522 1522 1522 1522 1522 1522 1521 1521 1521 1521 1521 1520 1520 1519 1519 1519
1470 1471 1472 1474 1475 1476 1478 1479 1480 1481 1482 1483 1484 1485 1486 1487 1488 1489 1490 1491 1492 1493 1494 1495 1496 1497 1498 1499 1501 1502 1503 1504 1504 1505 1506 1507 1508 1508 1509 1509 1509 1509 1510 1511 1511 1512 1512 1513 1514 1514 1515 1515 1516 1516 1516 1517 1517 1518 1518 1518 1519 1519 1519 1519 1519 1520 1520 1520 1520 1521 1521 1521 1521 1522 1522 1522 1522 1522 1522 1522 1522 1522 1522 1522 1522 1522 1522 1522 1522 1521 1521 1521 1521 1521 1521 1521 1520 1520 1520 1519 1519 1519 1518
1469 1470 1471 1473 1474 1475 1477 1479 1480 1481 1482 1483 1484 1485 1486 1487 1488 1489 1490 1491 1492 1493 1494 1495 1496 1497 1498 1499 1500 1501 1502 1504 1504 1505 1506 1507 1507 1508 1509 1509 1509 1509 1510 1510 1511 1512 1512 1513 1514 1514 1515 1515 1516 1516 1516 1517 1517 1518 1518 1518 1519 1519 1519 1519 1519 1520 1520 1520 1520 1520 1521 1521 1521 1521 1522 1522 1522 1522 1522 1522 1522 1522 1522 1522 1522 1521 1521 1521 1521 1521 1521 1521 1521 1521 1520 1520 1520 1520 1519 1519 1518 1518 1517
1468 1470 1471 1472 1474 1475 1476 1478 1479 1480 1481 1482 1484 1484 1485 1486 1487 1488 1489 1490 1491 1492 1493 1494 1495 1496 1498 1499 1500 1501 1502 1503 1504 1505 1505 1506 1507 1508 1508 1509 1509 1509 1510 1510 1511 1511 1512 1513 1514 1514 1515 1515 1516 1516 1516 1517 1517 1518 1518 1518 1519 1519 1519 1519 1519 1520 1520 1520 1520 1520 1520 1521 1521 1521 1521 1522 1522 1522 1522 1522 1522 1522 1521 1521 1521 1521 1521 1521 1521 1521 1521 1520 1520 1520 1520 1520 1519 1519 1519 1518 1518 1517 1517
1468 1469 1471 1472 1473 1474 1476 1477 1479 1480 1481 1482 1483 1484 1485 1486 1487 1488 1489 1490 1491 1492 1493 1494 1495 1496 1497 1498 1499 1500 1501 1503 1504 1504 1505 1506 1507 1508 1508 1508 1509 1509 1510 1510 1511 1511 1512 1513 1514 1514 1514 1515 1515 1516 1516 1517 1517 1518 1518 1518 1519 1519 1519 1519 1519 1520 1520 1520 1520 1520 1520 1521 1521 1521 1522 1522 1522 1522 1522 1522 1522 1522 1521 1521 1521 1521 1521 1521 1520 1520 1520 1520 1520 1519 1519 1519 1519 1518 1518 1517 1517 1516 1516
1467 1469 1470 1471 1473 1474 1475 1477 1478 1480 1481 1482 1483 1484 1485 1486 1486 1487 1488 1489 1490 1491 1492 1494 1494 1496 1497 1498 1499 1500 1501 1502 1503 1504 1505 1506 1507 1507 1508 1508 1509 1509 1509 1510 1511 1511 1512 1513 1513 1514 1514 1515 1515 1516 1516 1516 1517 1517 1518 1518 1519 1519 1519 1519 1519 1520 1520 1520 1520 1520 1521 1521 1521 1521 1521 1521 1522 1522 1522 1522 1521 1521 1521 1521 1521 1521 1520 1520 1520 1520 1520 1519 1519 1519 1519 1518 1518 1518 1517 1517 1516 1515 1515
1466 1468 1469 1471 1472 1473 1474 1476 1478 1479 1481 1481 1482 1483 1484 1485 1486 1487 1488 1489 1490 1491 1492 1493 1494 1495 1496 1497 1498 1499 1500 1502 1503 1504 1504 1505 1506 1507 1508 1508 1509 1509 1509 1510 1510 1511 1512 1512 1513 1514 1514 1514 1515 1515 1516 1516 1517 1517 1517 1518 1518 1519 1519 1519 1519 1519 1520 1520 1520 1520 1521 1521 1521 1521 1521 1521 1521 1521 1521 1521 1521 1521 1521 1521 1520 1520 1520 1520 1519 1519 1519 1519 1519 1518 1518 1518 1517 1517 1516 1516 1515 1514 1514
1465 1467 1469 1470 1471 1473 1474 1475 1477 1479 1480 1481 1482 1483 1484 1485 1486 1487 1488 1489 1489 1490 1492 1493 1494 1495 1496 1497 1498 1499 1500 1501 1502 1503 1504 1505 1506 1507 1508 1508 1509 1509 1509 1510 1510 1511 1512 1512 1513 1513 1514 1514 1515 1515 1515 1516 1516 1516 1517 1517 1518 1518 1518 1519 1519 1519 1519 1520 1520 1520 1520 1520 1520 1520 1520 1520 1521 1521 1521 1521 1521 1520 1520 1520 1520 1520 1519 1519 1519 1519 1519 1518 1518 1518 1517 1517 1516 1516 1515 1515 1514 1514 1513
1465 1466 1468 1469 1471 1472 1473 1474 1476 1478 1479 1480 1481 1482 1484 1485 1486 1487 1488 1489 1489 1490 1491 1493 1494 1494 1496 1497 1498 1499 1500 1501 1502 1503 1504 1505 1506 1507 1508 1508 1509 1509 1509 1509 1510 1511 1511 1512 1513 1513 1514 1514 1514 1515 1515 1516 1516 1516 1517 1517 1517 1518 1518 1518 1519 1519 1519 1519 1519 1520 1520 1520 1520 1520 1520 1520 1520 1520 1520 1520 1520 1520 1520 1520 1519 1519 1519 1519 1519 1518 1518 1518 1517 1517 1516 1516 1515 1515 1514 1514 1513 1513 1512
1464 1466 1467 1469 1470 1471 1473 1474 1475 1477 1478 1480 1481 1482 1483 1484 1486 1487 1488 1489 1490 1491 1492 1493 1494 1494 1495 1496 1498 1499 1499 1500 1502 1503 1504 1504 1505 1507 1507 1508 1508 1509 1509 1509 1510 1511 1511 1512 1512 1513 1514 1514 1514 1515 1515 1515 1516 1516 1516 1517 1517 1518 1518 1518 1518 1519 1519 1519 1519 1519 1519 1520 1520 1520 1520 1520 1520 1520 1520 1520 1519 1519 1519 1519 1519 1519 1518 1518 1518 1517 1517 1517 1516 1516 1515 1515 1514 1514 1513 1513 1512 1511 1511
1463 1465 1466 1468 1469 1471 1472 1473 1475 1476 1478 1479 1480 1482 1483 1484 1485 1486 1488 1489 1490 1491 1492 1493 1494 1494 1495 1496 1497 1498 1499 1500 1501 1502 1503 1504 1505 1506 1507 1508 1508 1508 1509 1509 1509 1510 1511 1512 1512 1513 1513 1514 1514 1515 1515 1515 1516 1516 1516 1517 1517 1517 1518 1518 1518 1518 1519 1519 1519 1519 1519 1519 1519 1519 1519 1519 1519 1519 1519 1519 1519 1519 1519 1519 1518 1518 1518 1517 1517 1517 1516 1516 1515 1515 1514 1514 1514 1513 1512 1512 1511 1510 1510
1463 1464 1466 1467 1469 1470 1471 1473 1474 1476 1477 1479 1480 1481 1483 1484 1485 1486 1487 1488 1489 1490 1491 1492 1493 1494 1495 1496 1497 1498 1499 1500 1501 1502 1503 1504 1505 1506 1506 1507 1508 1508 1508 1509 1509 1510 1511 1511 1512 1512 1513 1514 1514 1514 1515 1515 1515 1516 1516 1516 1517 1517 1517 1518 1518 1518 1518 1518 1518 1519 1519 1519 1519 1519 1519 1519 1519 1519 1519 1519 1519 1518 1518 1518 1518 1517 1517 1517 1516 1516 1516 1515 1515 1514 1514 1513 1513 1512 1511 1511 1510 1509 1509
1462 1464 1465 1467 1468 1469 1471 1472 1474 1475 1476 1478 1479 1481 1482 1484 1484 1485 1486 1487 1488 1489 1490 1492 1493 1494 1494 1495 1496 1497 1498 1499 1500 1501 1502 1503 1504 1505 1506 1507 1507 1508 1508 1509 1509 1509 1510 1511 1511 1512 1513 1513 1514 1514 1514 1515 1515 1515 1516 1516 1517 1517 1517 1517 1517 1518 1518 1518 1518 1518 1518 1518 1518 1518 1518 1518 1518 1518 1518 1518 1518 1518 1517 1517 1517 1517 1516 1516 1516 1515 1515 1514 1514 1514 1513 1512 1512 1511 1510 1509 1509 1508 1508
1461 1463 1464 1466 1467 1469 1470 1472 1473 1474 1476 1477 1479 1480 1482 1483 1484 1485 1486 1487 1488 1489 1489 1491 1492 1493 1494 1494 1496 1497 1498 1499 1500 1501 1502 1503 1504 1505 1505 1506 1507 1508 1508 1508 1509 1509 1510 1510 1511 1512 1512 1513 1513 1514 1514 1514 1515 1515 1515 1516 1516 1516 1517 1517 1517 1517 1517 1517 1517 1518 1518 1518 1518 1518 1518 1518 1517 1517 1517 1517 1517 1517 1517 1516 1516 1516 1515 1515 1515 1514 1514 1514 1513 1513 1512 1511 1511 1510 1509 1509 1508 1507 1506
1461 1462 1464 1465 1467 1468 1469 1470 1472 1473 1475 1477 1478 1479 1481 1482 1483 1484 1485 1486 1487 1488 1489 1490 1491 1492 1493 1494 1495 1496 1498 1499 1499 1500 1501 1502 1503 1504 1505 1506 1507 1507 1508 1508 1509 1509 1509 1510 1511 1511 1512 1512 1513 1513 1514 1514 1514 1515 1515 1515 1516 1516 1516 1516 1517 1517 1517 1517 1517 1517 1517 1517 1517 1517 1517 1517 1517 1517 1517 1516 1516 1516 1516 1516 1515 1515 1515 1514 1514 1514 1513 1513 1512 1512 1511 1510 1510 1509 1508 1508 1507 1506 1505
1460 1462 1463 1464 1466 1467 1468 1469 1471 1473 1474 1476 1477 1479 1480 1481 1483 1484 1485 1486 1487 1488 1489 1489 1491 1492 1493 1494 1495 1496 1497 1498 1499 1500 1501 1502 1503 1504 1504 1505 1506 1507 1507 1508 1508 1509 1509 1510 1510 1511 1511 1512 1512 1513 1513 1514 1514 1514 1515 1515 1515 1516 1516 1516 1516 1516 1516 1516 1516 1517 1517 1516 1516 1516 1516 1516 1516 1516 1516 1516 1515 1515 1515 1515 1515 1514 1514 1514 1513 1513 1512 1512 1511 1511 1510 1509 1509 1508 1507 1507 1506 1505 1504
1459 1461 1463 1464 1465 1466 1468 1469 1470 1472 1474 1475 1476 1478 1479 1481 1482 1483 1484 1485 1486 1487 1488 1489 1490 1491 1492 1493 1494 1496 1497 1498 1499 1500 1501 1502 1503 1504 1504 1505 1506 1506 1507 1507 1508 1508 1509 1509 1510 1510 1511 1511 1512 1513 1513 1513 1514 1514 1514 1515 1515 1515 1515 1516 1516 1516 1516 1516 1516 1516 1516 1516 1516 1516 1516 1515 1515 1515 1515 1515 1515 1514 1514 1514 1514 1514 1513 1513 1513 1512 1512 1511 1510 1510 1509 1509 1508 1507 1506 1506 1505 1504 1504
1459 1461 1462 1463 1464 1466 1467 1468 1470 1471 1473 1474 1476 1477 1479 1480 1481 1483 1484 1485 1486 1487 1488 1489 1490 1491 1492 1493 1494 1495 1496 1497 1499 1499 1501 1502 1502 1503 1504 1504 1505 1506 1507 1507 1508 1508 1508 1509 1509 1510 1510 1511 1512 1512 1513 1513 1514 1514 1514 1514 1515 1515 1515 1515 1515 1515 1515 1515 1515 1515 1515 1515 1515 1515 1515 1515 1515 1514 1514 1514 1514 1514 1514 1514 1513 1513 1513 1512 1512 1511 1511 1510 1510 1509 1508 1508 1507 1506 1505 1505 1504 1503 1502
1459 1460 1461 1463 1464 1465 1466 1467 1469 1470 1472 1473 1475 1476 1478 1479 1481 1482 1483 1484 1485 1486 1487 1489 1489 1490 1491 1492 1494 1494 1496 1497 1498 1499 1500 1501 1502 1503 1504 1504 1505 1506 1506 1507 1508 1508 1508 1509 1509 1509 1510 1510 1511 1512 1512 1513 1513 1514 1514 1514 1514 1514 1514 1515 1515 1515 1515 1515 1515 1515 1514 1514 1514 1514 1514 1514 1514 1514 1514 1514 1513 1513 1513 1513 1513 1512 1512 1511 1511 1510 1510 1509 1509 1508 1507 1507 1506 1505 1504 1504 1503 1502 1501
1458 1459 1461 1462 1463 1464 1466 1467 1469 1470 1471 1472 1474 1475 1477 1479 1480 1482 1483 1484 1485 1486 1487 1488 1489 1490 1491 1492 1493 1494 1495 1496 1498 1499 1500 1501 1502 1502 1503 1504 1504 1505 1506 1507 1507 1508 1508 1508 1509 1509 1509 1510 1511 1511 1512 1512 1513 1513 1513 1514 1514 1514 1514 1514 1514 1514 1514 1514 1514 1514 1514 1514 1514 1514 1514 1513 1513 1513 1513 1513 1513 1512 1512 1512 1512 1511 1511 1511 1510 1510 1509 1509 1508 1507 1506 1506 1505 1504 1504 1503 1502 1501 1500
1458 1459 1460 1461 1463 1464 1465 1467 1468 1469 1470 1472 1473 1474 1476 1478 1479 1481 1482 1484 1484 1485 1486 1487 1489 1490 1491 1492 1493 1494 1495 1496 1497 1498 1499 1500 1501 1502 1503 1504 1504 1505 1505 1506 1507 1507 1508 1508 1508 1509 1509 1509 1510 1511 1511 1512 1512 1513 1513 1513 1513 1513 1514 1514 1514 1514 1514 1514 1514 1514 1514 1514 1513 1513 1513 1513 1513 1512 1512 1512 1512 1511 1511 1511 1511 1510 1510 1510 1509 1509 1508 1508 1507 1506 1505 1505 1504 1503 1503 1502 1501 1500 1499
1457 1459 1460 1461 1462 1463 1464 1466 1467 1469 1470 1471 1472 1474 1475 1477 1479 1480 1482 1483 1484 1485 1486 1487 1488 1489 1490 1492 1493 1494 1495 1496 1497 1498 1499 1500 1501 1502 1502 1503 1504 1504 1505 1505 1506 1507 1507 1508 1508 1508 1509 1509 1509 1510 1511 1511 1512 1512 1512 1512 1513 1513 1513 1513 1513 1513 1513 1513 1513 1513 1513 1513 1513 1512 1512 1512 1512 1511 1511 1511 1511 1511 1510 1510 1510 1509 1509 1509 1509 1508 1508 1507 1506 1505 1505 1504 1503 1502 1502 1501 1500 1499 1498
1456 1457 1459 1460 1461 1463 1464 1465 1466 1468 1469 1470 1471 1473 1474 1476 1478 1479 1481 1482 1484 1484 1485 1486 1487 1488 1489 1491 1492 1494 1494 1496 1497 1498 1499 1499 1500 1501 1502 1503 1503 1504 1504 1505 1505 1506 1506 1507 1507 1508 1508 1509 1509 1510 1510 1511 1511 1511 1512 1512 1512 1512 1512 1513 1513 1513 1513 1512 1512 1512 1512 1512 1512 1512 1511 1511 1511 1511 1510 1510 1510 1510 1509 1509 1509 1509 1509 1508 1508 1508 1507 1506 1506 1505 1504 1503 1502 1501 1500 1499 1499 1498 1497
1455 1456 1458 1459 1460 1462 1463 1464 1465 1467 1468 1469 1471 1472 1473 1475 1476 1478 1479 1481 1482 1484 1485 1486 1487 1488 1489 1490 1492 1493 1494 1495 1496 1497 1498 1499 1499 1500 1501 1502 1503 1503 1504 1504 1504 1505 1505 1506 1507 1507 1508 1508 1509 1509 1510 1510 1510 1511 1511 1511 1511 1511 1512 1512 1512 1512 1512 1512 1511 1511 1511 1511 1511 1511 1510 1510 1510 1510 1510 1509 1509 1509 1509 1509 1508 1508 1508 1508 1507 1507 1506 1506 1505 1504 1503 1502 1501 1500 1499 1499 1498 1497 1496
1454 1455 1457 1458 1459 1461 1462 1464 1464 1466 1467 1468 1469 1471 1472 1474 1475 1477 1479 1480 1481 1483 1484 1485 1486 1487 1488 1489 1490 1492 1493 1494 1495 1496 1497 1498 1499 1500 1500 1501 1502 1503 1503 1503 1504 1504 1505 1505 1506 1506 1507 1508 1508 1509 1509 1509 1510 1510 1510 1510 1511 1511 1511 1511 1511 1511 1511 1511 1511 1510 1510 1510 1510 1510 1510 1510 1509 1509 1509 1509 1509 1508 1508 1508 1508 1508 1507 1507 1507 1506 1505 1505 1504 1503 1502 1501 1500 1499 1499 1498 1497 1496 1495
1453 1455 1456 1458 1459 1460 1462 1463 1464 1465 1466 1468 1469 1470 1471 1473 1475 1477 1478 1480 1481 1482 1484 1485 1486 1487 1487 1488 1489 1490 1492 1493 1494 1495 1496 1497 1498 1499 1500 1501 1501 1502 1502 1503 1503 1504 1504 1504 1505 1506 1506 1507 1507 1508 1508 1509 1509 1509 1509 1510 1510 1510 1510 1510 1510 1510 1510 1510 1510 1509 1509 1509 1509 1509 1509 1509 1509 1509 1509 1508 1508 1508 1507 1507 1507 1507 1507 1506 1506 1505 1504 1504 1503 1502 1501 1500 1499 1498 1498 1497 1496 1495 1494
1452 1454 1455 1457 1458 1459 1461 1462 1463 1464 1466 1467 1469 1470 1472 1473 1475 1477 1478 1479 1481 1482 1483 1484 1485 1486 1487 1487 1488 1489 1491 1492 1493 1494 1496 1496 1497 1498 1499 1499 1500 1501 1501 1502 1502 1503 1503 1504 1504 1505 1505 1506 1506 1507 1507 1508 1508 1509 1509 1509 1509 1509 1509 1509 1509 1509 1509 1509 1509 1509 1509 1509 1509 1508 1508 1508 1508 1508 1508 1507 1507 1507 1507 1507 1506 1506 1506 1505 1505 1504 1503 1503 1502 1501 1500 1499 1498 1497 1496 1495 1494 1494 1493
1452 1453 1454 1456 1457 1459 1460 1461 1462 1464 1465 1467 1468 1470 1471 1473 1474 1476 1477 1479 1480 1481 1482 1483 1484 1485 1486 1487 1488 1489 1490 1491 1492 1493 1494 1495 1496 1497 1498 1499 1499 1500 1501 1501 1502 1502 1502 1503 1504 1504 1504 1505 1505 1506 1506 1507 1507 1508 1508 1508 1508 1508 1508 1508 1508 1508 1508 1508 1508 1508 1508 1508 1508 1508 1508 1508 1508 1507 1507 1507 1506 1506 1506 1506 1505 1505 1505 1504 1504 1503 1502 1501 1501 1500 1499 1498 1497 1496 1495 1494 1494 1492 1491
1451 1452 1454 1455 1456 1458 1459 1460 1462 1463 1464 1466 1468 1469 1471 1472 1474 1475 1476 1478 1479 1480 1481 1482 1483 1484 1485 1487 1488 1489 1490 1491 1492 1492 1493 1494 1495 1497 1498 1498 1499 1499 1500 1500 1501 1501 1502 1502 1503 1503 1504 1504 1504 1505 1505 1506 1506 1507 1507 1507 1507 1508 1508 1508 1508 1508 1508 1507 1507 1507 1507 1507 1507 1507 1507 1507 1507 1506 1506 1506 1506 1505 1505 1505 1505 1504 1504 1503 1503 1502 1501 1500 1499 1499 1498 1497 1496 1495 1494 1493 1492 1491 1490
1451 1452 1453 1454 1455 1457 1459 1460 1461 1463 1464 1465 1466 1468 1469 1471 1472 1474 1475 1477 1478 1479 1480 1481 1482 1483 1484 1486 1487 1488 1489 1490 1491 1492 1494 1494 1495 1496 1497 1498 1499 1499 1499 1499 1500 1500 1501 1501 1502 1502 1503 1503 1504 1504 1505 1505 1505 1506 1506 1506 1507 1507 1507 1507 1507 1507 1507 1507 1507 1507 1507 1507 1507 1507 1506 1506 1506 1506 1505 1505 1505 1505 1504 1504 1504 1503 1503 1502 1502 1501 1500 1499 1498 1497 1496 1495 1494 1494 1493 1492 1491 1490 1489
1450 1451 1453 1454 1455 1456 1458 1459 1460 1462 1463 1464 1465 1467 1468 1469 1471 1473 1474 1475 1476 1478 1479 1480 1482 1482 1483 1484 1485 1487 1488 1489 1490 1491 1493 1494 1494 1495 1495 1496 1496 1497 1497 1498 1499 1499 1499 1500 1501 1501 1502 1502 1503 1504 1504 1504 1505 1505 1505 1506 1506 1506 1506 1506 1506 1506 1506 1506 1506 1506 1506 1506 1506 1506 1506 1505 1505 1505 1505 1504 1504 1504 1504 1503 1503 1502 1502 1501 1500 1500 1499 1498 1497 1496 1495 1494 1493 1492 1492 1491 1489 1489 1487
1450 1451 1452 1453 1454 1456 1457 1459 1460 1461 1463 1464 1465 1466 1467 1469 1470 1471 1473 1474 1475 1476 1478 1479 1481 1481 1482 1482 1484 1485 1487 1488 1489 1491 1492 1493 1494 1494 1495 1495 1495 1496 1497 1498 1498 1498 1498 1499 1500 1501 1501 1502 1502 1503 1503 1504 1504 1504 1504 1505 1505 1505 1505 1505 1505 1505 1505 1505 1505 1505 1505 1505 1505 1505 1505 1505 1504 1504 1504 1504 1504 1503 1503 1502 1502 1501 1501 1500 1499 1499 1498 1497 1496 1494 1494 1493 1492 1491 1490 1489 1488 1487 1486
1449 1451 1452 1453 1454 1455 1457 1458 1459 1461 1462 1463 1464 1465 1467 1468 1469 1471 1472 1473 1475 1476 1477 1478 1479 1480 1481 1482 1483 1484 1486 1487 1488 1489 1491 1492 1493 1494 1494 1494 1495 1496 1496 1496 1497 1497 1498 1499 1499 1500 1500 1501 1501 1502 1502 1503 1503 1504 1504 1504 1504 1504 1504 1505 1505 1505 1505 1505 1505 1505 1505 1504 1504 1504 1504 1504 1504 1504 1504 1503 1503 1502 1502 1501 1501 1500 1499 1499 1498 1497 1496 1495 1494 1493 1492 1491 1491 1490 1489 1488 1487 1486 1484
1449 1450 1451 1452 1454 1455 1456 1458 1459 1460 1461 1463 1464 1465 1466 1468 1469 1470 1472 1473 1474 1475 1477 1478 1479 1480 1481 1482 1483 1484 1485 1486 1487 1489 1490 1491 1492 1492 1493 1494 1494 1494 1494 1495 1495 1496 1497 1498 1499 1499 1499 1500 1501 1501 1502 1502 1503 1503 1503 1503 1503 1504 1504 1504 1504 1504 1504 1504 1504 1504 1504 1504 1504 1504 1504 1504 1503 1503 1503 1502 1502 1501 1501 1500 1500 1499 1498 1498 1497 1496 1495 1494 1493 1492 1491 1490 1489 1488 1487 1486 1485 1484 1483
1449 1450 1451 1452 1453 1455 1456 1457 1459 1460 1461 1462 1463 1465 1466 1467 1469 1470 1471 1472 1474 1475 1476 1477 1479 1479 1481 1482 1483 1484 1484 1485 1486 1487 1489 1489 1490 1491 1492 1493 1493 1493 1494 1494 1495 1495 1496 1497 1498 1498 1498 1499 1500 1500 1501 1501 1502 1502 1502 1502 1503 1503 1503 1503 1504 1504 1504 1503 1503 1503 1503 1503 1503 1503 1503 1503 1503 1502 1502 1501 1501 1500 1500 1499 1499 1498 1497 1497 1496 1495 1494 1493 1492 1491 1490 1489 1488 1487 1486 1485 1484 1483 1482
1448 1449 1450 1452 1453 1454 1456 1457 1458 1459 1460 1462 1463 1464 1465 1467 1468 1469 1470 1472 1473 1474 1476 1477 1478 1479 1480 1482 1483 1484 1484 1485 1485 1486 1488 1489 1489 1490 1491 1492 1492 1493 1493 1494 1494 1495 1496 1496 1497 1497 1498 1498 1499 1500 1500 1501 1501 1501 1501 1502 1502 1502 1502 1503 1503 1503 1503 1503 1503 1503 1503 1503 1503 1502 1502 1502 1502 1501 1501 1500 1500 1499 1499 1498 1497 1497 1496 1495 1495 1494 1493 1492 1491 1490 1489 1487 1486 1485 1484 1484 1483 1481 1480
1448 1449 1450 1451 1453 1454 1455 1457 1458 1459 1460 1461 1462 1464 1465 1466 1467 1469 1470 1472 1473 1474 1475 1476 1478 1479 1480 1481 1482 1483 1484 1484 1485 1486 1487 1488 1489 1489 1490 1491 1491 1492 1493 1493 1494 1495 1496 1496 1496 1496 1497 1497 1497 1498 1499 1500 1500 1500 1501 1501 1501 1501 1502 1502 1502 1502 1502 1502 1502 1502 1502 1502 1502 1501 1501 1501 1501 1500 1500 1499 1499 1498 1498 1497 1496 1496 1495 1494 1494 1493 1492 1491 1490 1489 1487 1486 1485 1484 1483 1482 1481 1480 1479
1447 1448 1449 1450 1452 1454 1455 1456 1457 1459 1460 1461 1462 1463 1464 1466 1467 1469 1470 1471 1473 1474 1475 1476 1477 1478 1479 1480 1481 1482 1483 1484 1485 1486 1486 1487 1488 1489 1489 1490 1491 1491 1492 1493 1494 1494 1495 1496 1496 1496 1496 1496 1496 1497 1498 1499 1499 1500 1500 1500 1500 1501 1501 1501 1501 1501 1501 1501 1501 1501 1501 1501 1501 1500 1500 1500 1499 1499 1499 1499 1498 1497 1497 1496 1495 1495 1494 1493 1492 1491 1490 1489 1489 1487 1486 1485 1484 1482 1481 1480 1479 1479 1477